Flag for U.S.A. Weather past 2 weeks in Des Moines, Iowa, U.S.A.

42 °F

Drizzle. Fog.

Feels Like: 37 °F
Forecast: 31 / 49 °F
Wind: 8 mph from North

Location: Des Moines International Airport

Current Time: Nov 26, 2015 at 8:49:52 AM

Latest Report: Nov 26, 2015 at 7:54 AM

Visibility: 1 mi

Pressure: 30.09 "Hg

Humidity: 89%

Dew point: 39 °F

Location of Des MoinesLocation

Historic Weather in Des Moines — Graph


Des Moines temperature yesterday

Maximum temperature yesterday: 58 °F (at 12:54 PM)
Minimum temperature yesterday: 48 °F (at 12:54 AM)
Average temperature yesterday: 53 °F

Past Weeks' High & Low Weather Summary

High65 °F (Nov 14, 2:54 PM)93% (Nov 16, 8:54 PM)30.37 "Hg (Nov 16, 8:54 PM)
Low16 °F (Nov 21, 10:54 PM)21% (Nov 19, 2:54 PM)29.20 "Hg (Nov 11, 6:54 PM)
Average44 °F65%29.96 "Hg
* Reported Nov 11 7:54 AM — Nov 26 7:54 AM, Des Moines, Weather by CustomWeather, © 2015

Note: Actual official high and low records may vary slightly from our data, if they occured in-between our weather recording intervals... More about our weather records


Des Moines weather history for previous 24 hours

Time TempWeatherWind HumidityBarometerVisibility
7:54 AM
Thu, Nov 26
42 °FDrizzle. Fog.8 mph89%30.09 "Hg1 mi
6:54 AM42 °FDrizzle. Fog.8 mph92%30.10 "Hg2 mi
5:54 AM43 °FDrizzle. Fog.7 mph89%30.08 "Hg2 mi
4:54 AM44 °FLight rain. Fog.9 mph89%30.08 "Hg2 mi
3:54 AM47 °FDrizzle. Fog.8 mph90%30.07 "Hg2 mi
2:54 AM48 °FDrizzle. Fog.6 mph93%30.06 "Hg2 mi
1:54 AM50 °FFog.5 mph89%30.05 "Hg2 mi
12:54 AM53 °FFog.3 mph89%30.04 "Hg5 mi
11:54 PM
Wed, Nov 25
53 °FLight rain. Mostly cloudy.3 mph89%30.04 "Hg8 mi
10:54 PM54 °FLight rain. Overcast.7 mph86%30.03 "Hg7 mi
9:54 PM55 °FOvercast.7 mph80%30.02 "Hg10 mi
8:54 PM55 °FMostly cloudy.7 mph77%30.01 "Hg10 mi
7:54 PM54 °FDrizzle. Overcast.5 mph77%30.01 "Hg10 mi
6:54 PM54 °FOvercast.5 mph72%30.00 "Hg10 mi
5:54 PM54 °FOvercast.6 mph69%29.99 "Hg10 mi
4:54 PM55 °FOvercast.8 mph67%29.96 "Hg10 mi
3:54 PM56 °FOvercast.8 mph62%29.96 "Hg10 mi
2:54 PM57 °FMostly cloudy.13 mph60%29.95 "Hg10 mi
1:54 PM58 °FMostly cloudy.14 mph58%29.94 "Hg10 mi
12:54 PM58 °FOvercast.14 mph56%29.94 "Hg10 mi
11:54 AM57 °FMostly cloudy.12 mph51%29.96 "Hg10 mi
10:54 AM54 °FMostly cloudy.14 mph53%29.98 "Hg10 mi
9:54 AM52 °FMostly cloudy.13 mph53%29.98 "Hg10 mi
8:54 AM50 °FMostly cloudy.12 mph57%29.98 "Hg10 mi
Weather by CustomWeather, © 2015

See weather overviewHow to use our weather pages